Location: G�ppingen
(48.7089°N, 9.6563°E)
Time: 06:13:25
(UTC+02:00)

M-CUBED/EXP-1 PRIME - Pass Details

Date: 28 March 2019
Orbit: 430 x 671 km, 101.7° (Epoch: 19 April)

Event Time Altitude Azimuth Distance (km) Brightness Sun altitude
Rises 21:43:23 0° 11° (NNE) 2,976 ? -27.3°
Reaches altitude 10° 21:45:45 10° 2° (N) 2,082 ? -27.5°
Maximum altitude 21:49:46 32° 300° (WNW) 1,150 ? -28.0°
Drops below altitude 10° 21:53:51 10° 238° (WSW) 2,101 ? -28.5°
Sets 21:56:14 0° 229° (SW) 3,005 ? -28.8°
